IBB4153 LPMA-GCXO

Flight info

Callsign IBB4153
Flight time 0h 48m
Altitude 31000
Route GOSGA1W GOSGA DCT ORTIS ORTIS1L
Aircraft E195/M-SDE3GILORVW/S

Departure

Time 2026-04-24 03:30
Airport Cristiano Ronaldo International Airport (LPMA)

Arrival

Time 2026-04-24 04:19
Airport Tenerife Norte-Ciudad de La Laguna Airport (GCXO)
Time Latitude Longitude Altitude Speed Heading
2026-04-24 03:14 32.69335 -16.77696 117 ft 0 kts 138°
2026-04-24 03:24 32.69338 -16.77699 171 ft 3 kts 139°
2026-04-24 03:24 32.69360 -16.77718 171 ft 4 kts 155°
2026-04-24 03:25 32.69384 -16.77726 171 ft 4 kts 188°
2026-04-24 03:25 32.69401 -16.77718 171 ft 0 kts 226°
2026-04-24 03:27 32.69395 -16.77725 171 ft 4 kts 226°
2026-04-24 03:27 32.69362 -16.77766 171 ft 10 kts 226°
2026-04-24 03:28 32.69301 -16.77845 171 ft 15 kts 235°
2026-04-24 03:28 32.69295 -16.77982 171 ft 19 kts 265°
2026-04-24 03:28 32.69214 -16.78121 168 ft 24 kts 225°
2026-04-24 03:28 32.69086 -16.78273 160 ft 26 kts 226°
2026-04-24 03:29 32.68952 -16.78396 155 ft 23 kts 199°
2026-04-24 03:29 32.68907 -16.78461 155 ft 7 kts 346°
2026-04-24 03:29 32.68932 -16.78446 155 ft 3 kts 40°
2026-04-24 03:29 32.68933 -16.78444 155 ft 2 kts 40°
2026-04-24 03:30 32.69086 -16.78268 161 ft 82 kts 44°
2026-04-24 03:30 32.69747 -16.77514 213 ft 162 kts 42°
2026-04-24 03:30 32.70525 -16.76611 682 ft 155 kts 43°
2026-04-24 03:30 32.71182 -16.75566 1480 ft 167 kts 64°
2026-04-24 03:31 32.71490 -16.74117 2451 ft 201 kts 85°
2026-04-24 03:31 32.71333 -16.72246 3008 ft 262 kts 109°
2026-04-24 03:31 32.70251 -16.70422 3408 ft 272 kts 147°
2026-04-24 03:31 32.68496 -16.69689 3802 ft 267 kts 184°
2026-04-24 03:32 32.66687 -16.70042 4242 ft 264 kts 196°
2026-04-24 03:32 32.64897 -16.70586 4708 ft 266 kts 198°
2026-04-24 03:32 32.63129 -16.71155 5160 ft 267 kts 198°
2026-04-24 03:32 32.61329 -16.71694 5605 ft 268 kts 195°
2026-04-24 03:33 32.59481 -16.72068 6060 ft 272 kts 190°
2026-04-24 03:33 32.57588 -16.72248 6515 ft 273 kts 186°
2026-04-24 03:33 32.55685 -16.72274 6955 ft 275 kts 182°
2026-04-24 03:33 32.53754 -16.72184 7386 ft 280 kts 179°
2026-04-24 03:34 32.51795 -16.71947 7824 ft 284 kts 175°
2026-04-24 03:34 32.49832 -16.71607 8276 ft 286 kts 174°
2026-04-24 03:34 32.47856 -16.71228 8728 ft 289 kts 174°
2026-04-24 03:34 32.45857 -16.70825 9193 ft 292 kts 173°
2026-04-24 03:35 32.43850 -16.70416 9660 ft 293 kts 173°
2026-04-24 03:35 32.41854 -16.70006 10112 ft 300 kts 173°
2026-04-24 03:35 32.39636 -16.69561 10552 ft 345 kts 173°
2026-04-24 03:35 32.37120 -16.69065 10976 ft 381 kts 173°
2026-04-24 03:36 32.34527 -16.68546 11414 ft 382 kts 173°
2026-04-24 03:36 32.31883 -16.68010 11863 ft 386 kts 173°
2026-04-24 03:36 32.29223 -16.67467 12316 ft 389 kts 173°
2026-04-24 03:36 32.26547 -16.66921 12774 ft 391 kts 173°
2026-04-24 03:37 32.23851 -16.66370 13247 ft 395 kts 174°
2026-04-24 03:37 32.21132 -16.65815 13714 ft 398 kts 174°
2026-04-24 03:37 32.18393 -16.65254 14151 ft 401 kts 174°
2026-04-24 03:37 32.15631 -16.64688 14581 ft 404 kts 174°
2026-04-24 03:38 32.12886 -16.64122 15006 ft 407 kts 174°
2026-04-24 03:38 32.10080 -16.63545 15441 ft 410 kts 175°
2026-04-24 03:38 32.07245 -16.63091 15883 ft 412 kts 177°
2026-04-24 03:38 32.04376 -16.62723 16326 ft 414 kts 178°
2026-04-24 03:39 32.01524 -16.62397 16766 ft 417 kts 179°
2026-04-24 03:39 31.98616 -16.62084 17229 ft 421 kts 179°
2026-04-24 03:39 31.95684 -16.61775 17698 ft 424 kts 179°
2026-04-24 03:39 31.92729 -16.61465 18188 ft 427 kts 179°
2026-04-24 03:40 31.89751 -16.61150 18614 ft 431 kts 179°
2026-04-24 03:40 31.86745 -16.60831 19032 ft 435 kts 179°
2026-04-24 03:40 31.83721 -16.60507 19457 ft 438 kts 179°
2026-04-24 03:40 31.80717 -16.60183 19878 ft 440 kts 179°
2026-04-24 03:41 31.77657 -16.59849 20288 ft 443 kts 179°
2026-04-24 03:41 31.74575 -16.59511 20730 ft 446 kts 179°
2026-04-24 03:41 31.71475 -16.59170 21182 ft 449 kts 179°
2026-04-24 03:41 31.68347 -16.58824 21633 ft 452 kts 179°
2026-04-24 03:42 31.65194 -16.58474 22092 ft 455 kts 179°
2026-04-24 03:42 31.62025 -16.58122 22563 ft 460 kts 179°
2026-04-24 03:42 31.58825 -16.57767 23038 ft 463 kts 179°
2026-04-24 03:42 31.56694 -16.57529 23357 ft 465 kts 179°
2026-04-24 03:43 31.53456 -16.57166 23810 ft 469 kts 179°
2026-04-24 03:43 31.49123 -16.56678 24339 ft 473 kts 179°
2026-04-24 03:43 31.45838 -16.56304 24687 ft 476 kts 179°
2026-04-24 03:43 31.43643 -16.56056 24796 ft 478 kts 179°
2026-04-24 03:44 31.40319 -16.55699 24908 ft 479 kts 179°
2026-04-24 03:44 31.36997 -16.55354 24963 ft 479 kts 179°
2026-04-24 03:44 31.33677 -16.55016 24991 ft 479 kts 179°
2026-04-24 03:44 31.30348 -16.54678 25005 ft 479 kts 179°
2026-04-24 03:45 31.27030 -16.54341 25183 ft 474 kts 179°
2026-04-24 03:45 31.23775 -16.54009 25589 ft 476 kts 179°
2026-04-24 03:45 31.20452 -16.53671 26028 ft 479 kts 179°
2026-04-24 03:45 31.17122 -16.53332 26468 ft 482 kts 179°
2026-04-24 03:46 31.13762 -16.52990 26907 ft 486 kts 179°
2026-04-24 03:46 31.10384 -16.52646 27362 ft 489 kts 179°
2026-04-24 03:46 31.06977 -16.52299 27823 ft 493 kts 179°
2026-04-24 03:46 31.03545 -16.51948 28293 ft 496 kts 180°
2026-04-24 03:47 31.00091 -16.51594 28733 ft 500 kts 180°
2026-04-24 03:47 30.96648 -16.51244 28927 ft 506 kts 179°
2026-04-24 03:47 30.93138 -16.50886 29019 ft 506 kts 179°
2026-04-24 03:48 30.86112 -16.50163 29079 ft 506 kts 179°
2026-04-24 03:48 30.79076 -16.49440 29099 ft 505 kts 179°
2026-04-24 03:49 30.72104 -16.48724 29078 ft 505 kts 179°
2026-04-24 03:49 30.65094 -16.48008 29100 ft 504 kts 179°
2026-04-24 03:50 30.58089 -16.47293 29100 ft 505 kts 179°
2026-04-24 03:50 30.54724 -16.46943 29104 ft 475 kts 179°
2026-04-24 03:50 30.51522 -16.46599 29108 ft 454 kts 179°
2026-04-24 03:51 30.45237 -16.45951 29083 ft 454 kts 180°
2026-04-24 03:51 30.38958 -16.45318 29105 ft 452 kts 180°
2026-04-24 03:52 30.32667 -16.44687 29106 ft 453 kts 180°
2026-04-24 03:52 30.26413 -16.44059 29098 ft 453 kts 180°
2026-04-24 03:53 30.20127 -16.43426 29103 ft 454 kts 180°
2026-04-24 03:53 30.13839 -16.42792 29105 ft 453 kts 180°
2026-04-24 03:54 30.07547 -16.42157 29103 ft 453 kts 180°
2026-04-24 03:54 30.04461 -16.41842 29103 ft 432 kts 180°
2026-04-24 03:54 30.01595 -16.41538 29104 ft 405 kts 180°
2026-04-24 03:54 29.98830 -16.41246 28645 ft 394 kts 180°
2026-04-24 03:55 29.96126 -16.40969 28170 ft 388 kts 180°
2026-04-24 03:55 29.93443 -16.40701 27704 ft 384 kts 180°
2026-04-24 03:55 29.90788 -16.40441 27207 ft 381 kts 180°
2026-04-24 03:55 29.88155 -16.40186 26755 ft 378 kts 180°
2026-04-24 03:56 29.85535 -16.39930 26314 ft 375 kts 180°
2026-04-24 03:56 29.82944 -16.39675 25877 ft 372 kts 180°
2026-04-24 03:56 29.80377 -16.39420 25449 ft 369 kts 180°
2026-04-24 03:56 29.77850 -16.39170 25030 ft 367 kts 180°
2026-04-24 03:57 29.75311 -16.38917 24616 ft 364 kts 179°
2026-04-24 03:57 29.72792 -16.38666 24206 ft 362 kts 179°
2026-04-24 03:57 29.70287 -16.38417 23802 ft 360 kts 179°
2026-04-24 03:57 29.67799 -16.38167 23343 ft 358 kts 179°
2026-04-24 03:58 29.65319 -16.37916 22863 ft 355 kts 179°
2026-04-24 03:58 29.62888 -16.37669 22401 ft 352 kts 179°
2026-04-24 03:58 29.60455 -16.37424 21940 ft 350 kts 179°
2026-04-24 03:58 29.58036 -16.37182 21487 ft 347 kts 180°
2026-04-24 03:59 29.55641 -16.36943 21044 ft 345 kts 180°
2026-04-24 03:59 29.53259 -16.36705 20605 ft 342 kts 180°
2026-04-24 03:59 29.50908 -16.36470 20407 ft 332 kts 180°
2026-04-24 03:59 29.48654 -16.36238 20417 ft 324 kts 180°
2026-04-24 04:00 29.46290 -16.36014 20428 ft 349 kts 180°
2026-04-24 04:00 29.43937 -16.35785 20435 ft 340 kts 180°
2026-04-24 04:00 29.41613 -16.35553 20446 ft 331 kts 180°
2026-04-24 04:00 29.39343 -16.35322 20458 ft 324 kts 180°
2026-04-24 04:01 29.37124 -16.35098 20458 ft 317 kts 180°
2026-04-24 04:01 29.34942 -16.34879 20475 ft 319 kts 180°
2026-04-24 04:01 29.32598 -16.34661 20487 ft 347 kts 180°
2026-04-24 04:01 29.30187 -16.34430 20455 ft 346 kts 180°
2026-04-24 04:02 29.27771 -16.34194 20023 ft 348 kts 180°
2026-04-24 04:02 29.25405 -16.33956 19599 ft 343 kts 180°
2026-04-24 04:02 29.23036 -16.33717 19181 ft 340 kts 180°
2026-04-24 04:02 29.20695 -16.33480 18768 ft 337 kts 180°
2026-04-24 04:03 29.18362 -16.33244 18356 ft 334 kts 180°
2026-04-24 04:03 29.16052 -16.33012 17882 ft 332 kts 180°
2026-04-24 04:03 29.13761 -16.32785 17420 ft 329 kts 180°
2026-04-24 04:03 29.11491 -16.32559 16963 ft 326 kts 180°
2026-04-24 04:04 29.09239 -16.32336 16502 ft 323 kts 180°
2026-04-24 04:04 29.07007 -16.32118 16054 ft 320 kts 180°
2026-04-24 04:04 29.04819 -16.31903 15627 ft 318 kts 180°
2026-04-24 04:04 29.02615 -16.31686 15195 ft 316 kts 180°
2026-04-24 04:05 29.00427 -16.31472 14770 ft 314 kts 179°
2026-04-24 04:05 28.98256 -16.31258 14352 ft 312 kts 179°
2026-04-24 04:05 28.96098 -16.31045 13938 ft 310 kts 179°
2026-04-24 04:05 28.93954 -16.30836 13473 ft 307 kts 179°
2026-04-24 04:06 28.91851 -16.30633 13004 ft 305 kts 179°
2026-04-24 04:06 28.89749 -16.30429 12551 ft 302 kts 179°
2026-04-24 04:06 28.87663 -16.30227 12101 ft 299 kts 178°
2026-04-24 04:06 28.85596 -16.30027 11656 ft 296 kts 178°
2026-04-24 04:07 28.83545 -16.29828 11219 ft 294 kts 178°
2026-04-24 04:07 28.81511 -16.29630 10786 ft 292 kts 178°
2026-04-24 04:07 28.79552 -16.29439 10597 ft 277 kts 177°
2026-04-24 04:07 28.77681 -16.29251 10409 ft 264 kts 177°
2026-04-24 04:08 28.75834 -16.29068 9738 ft 271 kts 177°
2026-04-24 04:08 28.73905 -16.28886 9045 ft 291 kts 176°
2026-04-24 04:08 28.71869 -16.28694 8572 ft 293 kts 176°
2026-04-24 04:08 28.69850 -16.28497 8075 ft 289 kts 176°
2026-04-24 04:09 28.67877 -16.28304 7593 ft 286 kts 175°
2026-04-24 04:09 28.65924 -16.28112 7288 ft 276 kts 175°
2026-04-24 04:09 28.64038 -16.27924 7152 ft 268 kts 175°
2026-04-24 04:09 28.62238 -16.27744 7085 ft 251 kts 175°
2026-04-24 04:10 28.60517 -16.27570 7052 ft 248 kts 175°
2026-04-24 04:10 28.58801 -16.27395 7028 ft 247 kts 175°
2026-04-24 04:10 28.57091 -16.27225 7016 ft 246 kts 175°
2026-04-24 04:11 28.53963 -16.25876 6507 ft 246 kts 137°
2026-04-24 04:11 28.52721 -16.24554 6043 ft 242 kts 134°
2026-04-24 04:11 28.51544 -16.23203 5600 ft 238 kts 128°
2026-04-24 04:11 28.50667 -16.21641 5278 ft 231 kts 115°
2026-04-24 04:12 28.49939 -16.20018 5146 ft 230 kts 112°
2026-04-24 04:12 28.49308 -16.18387 5069 ft 227 kts 109°
2026-04-24 04:12 28.48730 -16.16767 5029 ft 216 kts 108°
2026-04-24 04:12 28.48177 -16.15184 5014 ft 215 kts 108°
2026-04-24 04:13 28.47632 -16.13601 5005 ft 214 kts 107°
2026-04-24 04:13 28.47089 -16.12022 4996 ft 214 kts 108°
2026-04-24 04:13 28.46321 -16.10563 4981 ft 221 kts 136°
2026-04-24 04:13 28.44908 -16.09912 4981 ft 226 kts 178°
2026-04-24 04:14 28.43390 -16.10266 4997 ft 227 kts 198°
2026-04-24 04:14 28.41900 -16.10843 4999 ft 226 kts 200°
2026-04-24 04:14 28.40550 -16.11715 4982 ft 222 kts 231°
2026-04-24 04:14 28.40028 -16.13213 4994 ft 199 kts 275°
2026-04-24 04:15 28.40484 -16.14639 4983 ft 192 kts 303°
2026-04-24 04:15 28.41153 -16.15961 4994 ft 193 kts 304°
2026-04-24 04:15 28.41831 -16.17277 4997 ft 193 kts 304°
2026-04-24 04:15 28.42498 -16.18555 4712 ft 178 kts 304°
2026-04-24 04:16 28.43101 -16.19721 4443 ft 169 kts 304°
2026-04-24 04:16 28.43675 -16.20889 4250 ft 168 kts 302°
2026-04-24 04:16 28.44219 -16.22046 4052 ft 168 kts 301°
2026-04-24 04:16 28.44709 -16.23259 3829 ft 169 kts 295°
2026-04-24 04:17 28.45066 -16.24446 3593 ft 152 kts 292°
2026-04-24 04:17 28.45406 -16.25587 3407 ft 152 kts 294°
2026-04-24 04:17 28.45768 -16.26692 3244 ft 151 kts 295°
2026-04-24 04:17 28.46156 -16.27799 2978 ft 149 kts 296°
2026-04-24 04:18 28.46535 -16.28885 2789 ft 147 kts 295°
2026-04-24 04:18 28.46898 -16.29953 2581 ft 143 kts 294°
2026-04-24 04:18 28.47252 -16.30989 2379 ft 139 kts 292°
2026-04-24 04:18 28.47569 -16.32033 2160 ft 139 kts 288°
2026-04-24 04:19 28.47892 -16.33013 2031 ft 119 kts 288°
2026-04-24 04:19 28.48128 -16.33750 2047 ft 78 kts 290°
2026-04-24 04:19 28.48256 -16.34100 2052 ft 28 kts 314°
2026-04-24 04:19 28.48384 -16.34225 2055 ft 21 kts 319°
2026-04-24 04:20 28.48429 -16.34314 2058 ft 4 kts 290°
2026-04-24 04:20 28.48438 -16.34342 2059 ft 8 kts 290°
2026-04-24 04:20 28.48466 -16.34422 2062 ft 13 kts 293°
2026-04-24 04:20 28.48514 -16.34556 2069 ft 22 kts 291°
2026-04-24 04:21 28.48561 -16.34684 2072 ft 14 kts 309°
2026-04-24 04:21 28.48638 -16.34683 2072 ft 12 kts 23°
2026-04-24 04:21 28.48676 -16.34665 2073 ft 0 kts 21°